Regional Weather Roundup
Issued by NWS Kansas City/Pleasant Hill, MO

Home | Current Version | Previous Version | Text Only | Print | Product List | Glossary On
Versions: 1 2 3 4 5 6 7 8 9 10 11 12 13 14 15 16 17 18 19 20 21 22 23 24 25 26 27 28 29 30 31 32 33 34 35 36 37 38 39 40 41 42 43 44 45 46 47 48 49 50
000
ASUS43 KEAX 111510
RWREAX

WEATHER ROUNDUP FOR EASTERN KANSAS AND NORTHWEST MISSOURI
NATIONAL WEATHER SERVICE KANSAS CITY/PLEASANT HILL MO
900 AM CST MON DEC 11 2017

KSZ040-057-103>105-MOZ028-029-037-043-111600-
...KANSAS CITY METROPOLITAN AREA...

CITY           SKY/WX    TMP DP  RH WIND       PRES   REMARKS
K.C. INTL      PTSUNNY   46  18  32 W15       29.95S
K.C. DOWNTOWN  SUNNY     43  21  41 W7        29.95F
LEES SUMMIT    SUNNY     46  18  32 W12       29.95F
OLATHE - IXD   SUNNY     43  18  36 W14       29.99F
OLATHE - OJC   SUNNY     43  18  36 W12       29.97F
LAWRENCE       SUNNY     40  24  53 N6        30.01S

$$

MOZ001>008-011>017-020>025-030>033-038>040-044>046-053-054-111600-
...NORTHERN AND CENTRAL MISSOURI...

CITY           SKY/WX    TMP DP  RH WIND       PRES   REMARKS
ST. JOSEPH     MOSUNNY   43  24  47 NW9       29.96R
MOSBY          SUNNY     46  19  34 NW9       29.93F
WARRENSBURG    SUNNY     41  21  45 SW10      29.95S WCI  35
WHITEMAN AFB   MOSUNNY   44  20  39 W12       29.90S
CLINTON        NOT AVBL
SEDALIA        MOSUNNY   43  23  45 SW16      29.94S
WARSAW         NOT AVBL
CHILLICOTHE      N/A     43  21  41 W6        29.88F
KIRKSVILLE     MOSUNNY   40  24  53 W14G22    29.81F WCI  32

$$

MOZ041-047>049-056>058-063>065-088>090-097-111600-
...EASTERN AND SOUTHERN MISSOURI...

CITY           SKY/WX    TMP DP  RH WIND       PRES   REMARKS
ST. LOUIS INTL PTSUNNY   43  27  53 S12       29.90F
SPIRIT OF STL  PTSUNNY   45  28  51 SW9       29.89F
COLUMBIA       MOSUNNY   42  24  49 SW16      29.89F WCI  34
JEFFERSON CITY CLOUDY    43  25  49 CALM      29.92F
ROLLA          SUNNY     47  23  38 SW16      29.94F
OSAGE BEACH    MOSUNNY   47  22  37 SW13      29.95F
SPRINGFIELD    SUNNY     51  22  31 SW13      30.01F
BRANSON        SUNNY     50  18  27 W14       30.09S
JOPLIN         SUNNY     49  21  33 SW9G25    30.07F
WEST PLAINS    SUNNY     45  25  45 SW9       30.06F

$$

IAZ060-094-KSZ022-034>040-054-083-096-NEZ052-066-093-111600-
...KANSAS...SOUTHEAST NEBRASKA AND IOWA...

CITY           SKY/WX    TMP DP  RH WIND       PRES   REMARKS
TOPEKA         SUNNY     43  18  36 W13       30.02F
MANHATTAN      CLOUDY    45  17  32 W9        30.07R
EMPORIA        SUNNY     43  14  31 W14       30.07F
CHANUTE        SUNNY     45  18  34 W9        30.07R
WICHITA        MOSUNNY   47  11  23 NW20G25   30.13R
OMAHA          MOSUNNY   47  24  40 NW25G35   29.93R
LINCOLN        SUNNY     47  18  31 NW13      30.02R
FALLS CITY     CLOUDY    47  18  31 NW20      29.96R
LAMONI         CLOUDY    40  20  44 NW24G31   29.83R WCI  29
DES MOINES     MOSUNNY   42  22  44 W23G35    29.77F WCI  33

$$




USA.gov is the U.S. government's official web portal to all federal, state and local government web resources and services.